Powrót do katalogu

FENGYUN 1C DEB

LostSSO
NORAD 46996·DEBRIS·🇨🇳 China

Wystrzelony May 10, 1999 z Taiyuan Satellite Launch Center

Loading…

Następne Przeloty (najbliższe 24 godziny)

TLE

NieaktualneSource: Space-Track

Epoka: Apr 28, 2024, 10:30 UTC

1 46996U 99025EZW 24119.43805378  .00005989  00000-0  32177-2 0  9997
2 46996  98.9618 197.7750 0054802 339.4131  20.4832 14.12506480535627

Śledź FENGYUN 1C DEB w czasie rzeczywistym z AllMySat

Download on the App Store